Location: Richterswil
(47.2055°N, 8.7071°E)
Time: 18:00:37
(UTC+00:00)

Cosmos 1980 Rocket - Pass Details

Date: 07 June 2020
Orbit: 828 x 851 km, 71.0° (Epoch: 08 July)

Event Time Altitude Azimuth Distance (km) Brightness Sun altitude
Exits shadow 02:33:33 - 265° (W) 3,300 4.8 -8.0°
Reaches altitude 10° 02:36:45 10° 285° (WNW) 2,457 4.3 -7.7°
Maximum altitude 02:40:07 16° 322° (NW) 2,076 4.4 -7.3°
Drops below altitude 10° 02:43:30 10° 359° (N) 2,474 5.3 -6.9°
Sets 02:47:02 0° 21° (NNE) 3,417 6.7 -6.4°
